Jonathan Swift

(30 November 1667 – 19 October 1745 / Dublin)

Stats

» Click to list general statistics » OR, select a date :

General Statistics

Visitors of the poet

Number of visitors of the poet’s mainpage in PoemHunter.Com

Attention : Numbers in this table does not indicate the total hits of poems of the poet, but indicates the hits of the poet’s main page.

Date Hits
12/08/2016 Thursday 183
60%
12/07/2016 Wednesday 158
51%
12/06/2016 Tuesday 262
86%
12/05/2016 Monday 292
96%
12/04/2016 Sunday 255
83%
12/03/2016 Saturday 167
54%
12/02/2016 Friday 124
40%
12/01/2016 Thursday 161
52%
11/30/2016 Wednesday 187
61%
11/29/2016 Tuesday 304
100%
11/28/2016 Monday 191
62%
11/27/2016 Sunday 191
62%
11/26/2016 Saturday 145
47%
11/25/2016 Friday 156
51%
11/24/2016 Thursday 192
63%
11/23/2016 Wednesday 174
57%
11/22/2016 Tuesday 196
64%
11/21/2016 Monday 205
67%
11/20/2016 Sunday 139
45%
11/19/2016 Saturday 170
55%

Reader rating & num.of MyPoemList’s

Click the captions of columns to change the order.

# Poem Title Submit Date Reader Rating Num.of MyPoemList’s
Rating Num.R.
1 A Gentle Echo on Woman 10/19/2015 -- 0 0
2 Verses On The Death Of Dr. Swift, D.S.P.D. 04/12/2010 5.1 49 0
3 To Lady Carteret 04/12/2010 5.4 65 0
4 To Quilca, A Country-House In No Very Good Repair 04/12/2010 5.4 72 0
5 To Stella On Her Birth-Day, 1721-2 04/12/2010 5.5 54 0
6 To Stella Visiting Me In My Sickness 04/12/2010 5.3 67 0
7 To Stella, Who Collected And Transcribed His Poems 04/12/2010 5.4 58 0
8 To Stella, Written On The Day Of Her Birth. March 13, 1723-4, But Not On The Subject, When I Was Sick In Bed 04/12/2010 5.6 43 0
9 Toland’s Invitation To Dismal To Dine With The Calve’s Head Club 04/12/2010 5.7 62 0
10 Twelve Articles 04/12/2010 4.6 71 0
11 The Place Of The Damned 04/12/2010 5.5 22 0
12 The Progress Of Marriage 04/12/2010 5.4 43 1
13 The Progress Of Poetry 04/12/2010 5.3 35 0
14 The Revolution At Market-Hill 04/12/2010 5.5 62 1
15 The Sick Lion And The Ass 04/12/2010 5.3 58 2
16 The Virtues Of Sid Hamet The Magician’s Rod 04/12/2010 5.4 56 0
17 The Windsor Prophecy 04/12/2010 5.6 74 0
18 The Beasts' Confession 04/12/2010 5.5 40 1
19 The Dean’s Answer 04/12/2010 5.1 53 1
20 The Dean’s Reasons For Not Building At Drapier’s-Hill 04/12/2010 5.5 40 0
21 The Fable Of Midas 04/12/2010 5.5 20 1
22 The Fagot 04/12/2010 5.5 42 0
23 The Famous Speech-Maker Of England Or Baron (Alias Barren) Lovel’s Charge At The Assizes At Exon, April 5, 1710 04/12/2010 5.5 57 0
24 The Garden Plot 04/12/2010 5.6 47 0
25 The Grand Question Debated: Whether Hamilton’s Bawn Should Be Turned Into A Barrack Or Malt-House 04/12/2010 5.5 41 0
26 The Gulf Of All Human Possessions 04/12/2010 5.5 53 0
27 The Lady's Dressing Room 04/12/2010 5.2 34 3
28 Stella At Wood Park, A House Of Charles Ford, Esq., Near Dublin 04/12/2010 5.5 35 1
29 Stella’s Birth-Day. 1724-5 04/12/2010 4.8 56 1
30 Stella’s Birth-Day.1719-20 04/12/2010 5.8 62 1
31 Stella’s Birth-Day: A Great Bottle Of Wine, Long Buried, Being That Day Dug Up. 1722-3 04/12/2010 5.3 43 1
32 Stella's Birthday March 13, 1719 04/12/2010 5.5 20 0
33 Stella's Birthday March 13, 1727 04/12/2010 5.7 47 0
34 Stella's Birthday, March 13, 1726 04/12/2010 5.5 55 0
35 The Author Upon Himself 04/12/2010 5.5 31 0
36 Robin And Harry 04/12/2010 5.5 35 1
37 Sid Hamet’s Rod 04/12/2010 5.5 40 0
38 Riddles By Dr. Swift And His Friends 04/12/2010 5.5 39 1
39 Oysters 04/12/2010 5.4 51 0
40 Parody On The Recorder’s Speech To His Grace The Duke Of Ormond, 4th July, 1711 04/12/2010 5.6 58 0
41 Peace And Dunkirk 04/12/2010 5.2 38 0
42 Phillis, Or, The Progress Of Love 04/12/2010 5.4 29 0
43 On Stephen Duck, The Thresher, And Favourite Poet. A Quibbl 04/12/2010 5.4 45 0
44 On The Five Senses 04/12/2010 5.3 59 1
45 On The Gallows 04/12/2010 5.6 77 1
46 On The Moon 04/12/2010 5.5 39 3
47 On The Posteriors 04/12/2010 5.4 47 1
48 On The Vowels 04/12/2010 5.7 48 1
49 On The World 04/12/2010 5.5 51 1
50 On Time 04/12/2010 5.3 51 0
51 On Gold 04/12/2010 5.2 36 1
52 On Himself 04/12/2010 5.6 50 0
53 On Ink 04/12/2010 5.6 48 2
54 On Snow 04/12/2010 5.5 37 0
55 On A Corkscrew 04/12/2010 5.6 33 1
56 On A Horn 04/12/2010 5.0 37 1
57 On A Pair Of Dice 04/12/2010 5.3 34 0
58 On A Pen 04/12/2010 5.3 34 1
59 On A Shadow In A Glass 04/12/2010 5.0 24 2
60 On A Very Old Glass At Market-Hill 04/12/2010 5.4 39 0
61 On An Ill-Managed House 04/12/2010 5.2 33 0
62 On Cutting Down The Thorn At Market-Hill 04/12/2010 5.8 22 1
63 Market Women’s Cries 04/12/2010 5.0 52 0
64 Mr. William Crowe’s Address To Her Majesty, Turned Into Metre 04/12/2010 5.4 36 1
65 Mrs Frances Haris's Petition 04/12/2010 5.3 34 1
66 Mutton 04/12/2010 5.1 42 1
67 My Lady’s Lamantation And Complaint Against The Dean 04/12/2010 5.0 37 1
68 On A Candle 04/12/2010 5.1 37 2
69 On A Cannon 04/12/2010 5.6 34 0
70 On A Circle 04/12/2010 5.2 24 1
71 Epitaph In Berkeley Church-Yard, Gloucestershire 04/12/2010 5.5 10 0
72 Fontinella To Florinda 04/12/2010 5.5 33 1
73 Horace, Epist. I, Vii Imitation Of Horace To Lord Oxford 04/12/2010 5.5 39 1
74 Jack Frenchman’s Lamentation 04/12/2010 5.5 32 0
75 Lady Acheson Weary Of The Dean 04/12/2010 5.3 43 0
76 Lines Written Extempore On Mr. Harley’s Being Stabbed, And Addressed To His Physician, 1710-11 04/12/2010 5.4 33 0
77 Louisa To Strephon 04/12/2010 5.7 32 1
78 Daphne 04/12/2010 5.7 59 0
79 Dean Swift At Sir Arthur Acheson’s In The North Of Ireland 04/12/2010 5.2 74 1
80 Death And Daphne 04/12/2010 5.3 80 1
81 Dingley And Brent 04/12/2010 5.3 73 0
82 Elegy On Partridge 04/12/2010 5.9 84 1
83 An Excellent New Song Being The Intended Speech Of A Famous Orator Against Peace 04/12/2010 5.5 74 1
84 Answered Extempore By Dr. Swift 04/12/2010 5.8 63 0
85 Atlas; Or The Minister Of State 04/12/2010 5.7 65 1
86 Ballad 04/12/2010 5.0 77 1
87 Baucis And Philemon 04/12/2010 5.3 81 0
88 Bec’s Birth-Day Nov. 8, 1726 04/12/2010 5.4 66 0
89 Cadenus And Vanessa 04/12/2010 5.0 66 1
90 Corinna 04/12/2010 5.5 67 1
91 A Pastoral Dialogue 04/12/2010 5.5 30 0
92 A Receipt To Restore Stella’s Youth. 1724-5 04/12/2010 5.0 67 0
93 A Riddle 04/12/2010 5.4 78 2
94 An Echo 04/12/2010 4.8 74 2
95 A New Year’s Gift For Bec 04/12/2010 5.3 86 0
96 A Panegyric Of The Dean In The Person Of A Lady In The North 04/12/2010 5.2 72 0
97 The Beasts' Confession 01/01/2004 5.5 23 8
98 On Stephen Duck, The Thresher, And Favourite Poet. A Quibbl 01/01/2004 5.5 20 7
99 Stella's Birthday March 13, 1727 01/01/2004 5.7 57 10
100 Stella's Birthday March 13, 1719 01/01/2004 5.5 45 8
101 Advice To The Grub Street Verse-Writers 01/01/2004 5.0 73 7
102 A Satirical Elegy 01/13/2003 5.9 43 16
103 A Beautiful Young Nymph Going To Bed 01/13/2003 6.2 95 64
104 A Description Of The Morning 01/03/2003 5.6 82 21
105 A Maypole 01/03/2003 5.6 101 11
106 Elegy Upon Tiger 01/03/2003 5.7 43 15
107 To Stella, Who Collected And Transcribed His Poems 01/03/2003 5.8 42 13
108 Mrs Frances Haris's Petition 01/03/2003 5.3 13 11
109 The Progress Of Poetry 01/03/2003 5.7 42 13
110 On Stella's Birth-Day, 1719 01/03/2003 5.5 44 15
111 Phillis, Or, The Progress Of Love 01/03/2003 5.9 62 13
112 A Description Of A City Shower 01/03/2003 5.4 74 21
113 Oysters 01/03/2003 6.0 27 11
114 Verses On The Death Of Doctor Swift 01/03/2003 5.9 42 16
115 The Place Of The Damned 01/03/2003 5.9 55 15
116 A Satirical Elegy On The Death Of A Late Famous General 01/03/2003 5.6 76 18
[Report Error]